Location: Belmont
(13.0833°N, 59.6000°W)
Time: 12:29:42
(UTC+00:00)

Okean 1 Rocket - Pass Details

Date: 17 September 2019
Orbit: 608 x 633 km, 82.5° (Epoch: 21 October)

Event Time Altitude Azimuth Distance (km) Brightness Sun altitude
Rises 23:20:25 0° 198° (SSW) 2,857 6.6 -20.8°
Reaches altitude 10° 23:22:44 10° 206° (SSW) 1,952 5.8 -21.3°
Maximum altitude 23:26:47 40° 275° (W) 902 4.4 -22.3°
Drops below altitude 10° 23:30:50 10° 345° (NNW) 1,953 5.9 -23.3°
Sets 23:33:10 0° 353° (N) 2,858 6.7 -23.9°
